Погода в Рагозино

Россия / Омская область     56°56′21″N   75°56′15″E
темп.,
°C
ветер,
м/с
пор.,
м/с
влажн.,
%
обл.,
%
осадки,
мм/ч
давл.,
гПа
погр.,
м
28 ноября, вс
вс2800:00−2зюз5139399 1.1 1020803
03:00−2зюз5119198 0.1 1022803
06:00−4зюз51192100 0.2 1024651
09:00−5зюз41094100 0.1 1026490
12:00−5зюз41092100 0.1 1027515
15:00−5зюз4109399 0.0 1029459
18:00−9юз2798100 0.1 1031145
21:00−10юз289876 0.0 1031143
29 ноября, пн
пн2900:00−10ююз299783 0.0 1031174
03:00−9юз31095100 0.0 1030228
06:00−9ююз31283100 0.0 1029296
09:00−8ююз41280100 0.0 1028327
12:00−6ююз41380100 0.0 1027384
15:00−5ююз41180100 0.0 1026369
18:00−7ююз4128397 0.0 1025293
21:00−9ююз311855 0.0 1024251
30 ноября, вт
вт3000:00−9юз3118510 0.0 1024240
03:00−10юз3108635 0.0 1023208
06:00−10юз3108673 0.0 1023198
09:00−11юз298872 0.0 1023165
12:00−8юз388112 0.0 1023194
15:00−6юз268468 0.0 1023195
18:00−7юз268598 0.0 1023155
21:00−8ююз258584 0.0 1023114
1 декабря, ср
ср100:00−11ю268763 0.0 1023111
03:00−13ю269198 0.0 1023100
06:00−13ю3990100 0.0 1021146
09:00−13ю31188100 0.0 1020199
12:00−8ю41382100 0.0 1019338
15:00−6ююз41578100 0.0 1017401
18:00−6ююз41480100 0.0 1017355
21:00−4ююз41479100 0.0 1016340
2 декабря, чт
чт200:00−4ююз41281100 0.0 1016320
03:00−4ю31181100 0.0 1016274
06:00−6ю31183100 0.0 1015239
09:00−5ю41379100 0.0 1013285
12:00−3ю51677100 0.0 1011387
15:00−2ю51678100 0.0 1008469
18:00−1ю51580100 0.0 1006419
21:000ю51485100 0.3 1004520